Location: Allison Elementary School
(34.0784°N, 117.7317°W)
Time: 04:38:34
(UTC+00:00)

Cosmos 1666 Rocket - Pass Details

Date: 15 November 2019
Orbit: 603 x 634 km, 82.5° (Epoch: 09 December)

Event Time Altitude Azimuth Distance (km) Brightness Sun altitude
Rises 01:50:07 0° 0° (N) 2,887 6.9 -13.1°
Reaches altitude 10° 01:52:26 10° 7° (N) 1,973 5.9 -13.6°
Maximum altitude 01:56:37 45° 80° (E) 832 3.8 -14.4°
Drops below altitude 10° 02:00:45 10° 154° (SSE) 1,946 6.0 -15.3°
Sets 02:03:01 0° 161° (SSE) 2,842 6.9 -15.7°
